Regional Weather Roundup
Issued by NWS Cleveland, OH

Home | Current Version | Previous Version | Text Only | Print | Product List | Glossary On
Versions: 1 2 3 4 5 6 7 8 9 10 11 12 13 14 15 16 17 18 19 20 21 22 23 24 25 26 27 28 29 30 31 32 33 34 35 36 37 38 39 40 41 42 43 44 45 46 47 48 49 50
000
ASUS41 KCLE 310910
RWRCLE
OHIO REGIONAL WEATHER ROUNDUP
NATIONAL WEATHER SERVICE WILMINGTON, OH
400 AM EST SAT JAN 31 2015

NOTE: "FAIR" INDICATES FEW OR NO CLOUDS BELOW 12,000 FEET WITH NO
SIGNIFICANT WEATHER AND/OR OBSTRUCTIONS TO VISIBILITY.

OHZ001>008-015>018-024>027-034-035-043-044-311000-
   NORTHWEST OHIO

CITY           SKY/WX    TMP DP  RH WIND       PRES   REMARKS
DEFIANCE       PTCLDY    18  12  77 S6        30.35F WCI  10
FINDLAY        CLEAR     12   7  80 S7        30.35F WCI   1
TOLEDO EXPRESS CLEAR     10   7  87 CALM      30.34F
TOLEDO EXEC    CLEAR     16   9  74 SW7       30.36F WCI   6
LIMA           CLEAR     17  10  74 S8        30.35F WCI   7
$$

OHZ009>014-019>023-028>033-038-089-311000-
   NORTHEAST OHIO

CITY           SKY/WX    TMP DP  RH WIND       PRES   REMARKS
CLE-HOPKINS    PTCLDY     7   1  76 S6        30.38F WCI  -3
CLE-LAKEFRONT  CLEAR     11   3  70 S12       30.36F WCI  -3
CUY CO. ARPT   NOT AVBL
LORAIN-ELYRIA  CLEAR      5   0  79 S6        30.36F WCI  -6
ASHTABULA      PTCLDY    -2  -6  83 CALM      30.35F
AKRON-CANTON   PTCLDY     4  -1  80 SW6       30.34F WCI  -7
WOOSTER        PTCLDY    -2  -6  83 CALM      30.34F
MANSFIELD      PTCLDY     7   3  84 S7        30.32F WCI  -5
YOUNGSTOWN     PTCLDY     3   0  87 S5        30.33F WCI  -6
$$

OHZ042-051>053-060>062-070>072-077>081-311000-
  SOUTHWEST OHIO

CITY           SKY/WX    TMP DP  RH WIND       PRES   REMARKS
CINC-COVINGTON CLEAR     18  13  80 S5        30.39F WCI  11
CINC-LUNKEN    CLEAR     16  14  92 CALM      30.44F
HAMILTON       CLEAR     13  11  92 CALM      30.41F
DAYTON         CLEAR     19  13  77 S7        30.37F WCI  10
WRIGHT-PAT AFB CLEAR     14  11  90 CALM      30.38F
DAYTON GENERAL CLEAR     16  12  84 S5        30.37F WCI   9
WILMINGTON     CLEAR     16  10  77 S6        30.37F WCI   7
$$

OHZ036-037-039>041-045>050-054>059-063>069-073>076-082>088-311000-
  CENTRAL AND SOUTHEAST OHIO

CITY           SKY/WX    TMP DP  RH WIND       PRES   REMARKS
COLUMBUS       CLEAR     13   8  81 CALM      30.39F
OSU AIRPORT    CLEAR     14   8  77 S5        30.38S WCI   6
BOLTON FIELD   CLEAR     12   8  85 MISG      30.39S
RICKENBACK AFB CLEAR     12   8  85 CALM      30.40S
NEWARK         CLEAR      7   3  84 CALM      30.38F
MARION         CLEAR      7   4  87 S7        30.36F WCI  -5
LANCASTER      CLEAR      8   4  83 CALM      30.39F
ZANESVILLE     CLEAR      5   1  83 CALM      30.38F
NEW PHILLY     MOCLDY     2  -3  80 SE3       30.38F HAZE
$$


USA.gov is the U.S. government's official web portal to all federal, state and local government web resources and services.